TimeMST,TemperatureF,Dew PointF,Humidity,Sea Level PressureIn,VisibilityMPH,Wind Direction,Wind SpeedMPH,Gust SpeedMPH,PrecipitationIn,Events,Conditions,WindDirDegrees,DateUTC
12:51 AM,32.0,17.1,54,30.09,10.0,West,9.2,-,N/A,,Mostly Cloudy,260,2012-12-04 07:51:00
1:51 AM,32.0,18.0,56,30.12,10.0,WSW,10.4,-,N/A,,Mostly Cloudy,250,2012-12-04 08:51:00
2:51 AM,32.0,18.0,56,30.13,10.0,WSW,12.7,-,N/A,,Clear,240,2012-12-04 09:51:00
3:51 AM,30.0,18.0,61,30.14,10.0,West,4.6,-,N/A,,Clear,270,2012-12-04 10:51:00
4:51 AM,30.0,18.0,61,30.17,10.0,West,9.2,-,N/A,,Clear,270,2012-12-04 11:51:00
5:51 AM,28.0,17.1,63,30.19,10.0,West,6.9,-,N/A,,Clear,280,2012-12-04 12:51:00
6:51 AM,28.0,17.1,63,30.19,10.0,Calm,Calm,-,N/A,,Clear,0,2012-12-04 13:51:00
8:51 AM,35.1,21.0,57,30.19,10.0,Calm,Calm,-,N/A,,Clear,0,2012-12-04 15:51:00
9:51 AM,41.0,19.0,41,30.18,10.0,SSW,5.8,-,N/A,,Clear,210,2012-12-04 16:51:00
10:51 AM,45.0,18.0,34,30.15,10.0,South,6.9,-,N/A,,Clear,180,2012-12-04 17:51:00
11:51 AM,46.9,18.0,32,30.12,10.0,South,9.2,-,N/A,,Clear,170,2012-12-04 18:51:00
12:51 PM,46.9,18.0,32,30.11,10.0,SSE,11.5,-,N/A,,Clear,160,2012-12-04 19:51:00
1:51 PM,46.0,17.1,31,30.09,10.0,SE,11.5,-,N/A,,Clear,130,2012-12-04 20:51:00
2:51 PM,46.0,19.0,34,30.06,10.0,ESE,10.4,-,N/A,,Scattered Clouds,120,2012-12-04 21:51:00
3:51 PM,42.1,18.0,38,30.08,10.0,SE,12.7,-,N/A,,Mostly Cloudy,140,2012-12-04 22:51:00
4:51 PM,33.1,18.0,54,30.07,10.0,SE,8.1,-,N/A,,Clear,130,2012-12-04 23:51:00
5:51 PM,32.0,18.0,56,30.09,10.0,SE,6.9,-,N/A,,Clear,140,2012-12-05 00:51:00
6:51 PM,34.0,18.0,52,30.09,10.0,SE,9.2,-,N/A,,Overcast,130,2012-12-05 01:51:00
7:51 PM,30.9,18.0,59,30.08,10.0,SE,11.5,-,N/A,,Clear,130,2012-12-05 02:51:00
8:51 PM,33.1,18.0,54,30.05,10.0,SE,12.7,-,N/A,,Clear,140,2012-12-05 03:51:00
10:51 PM,30.9,18.0,59,30.00,10.0,ESE,6.9,-,N/A,,Clear,120,2012-12-05 05:51:00
11:51 PM,28.9,18.0,64,29.99,10.0,ESE,6.9,-,N/A,,Clear,110,2012-12-05 06:51:00